Weather History for KEPH - May, 2014

Change the Weather History Date:

Thursday, May 1, 2014

  Actual Average Record
Temperature  
Mean Temperature 65 °F 54 °F  
Max Temperature 82 °F 68 °F 90 °F (1998)
Min Temperature 48 °F 42 °F 29 °F (1954)
Degree Days  
Heating Degree Days 0 11  
Month to date heating degree days 0 11  
Since 1 July heating degree days 5623 5708  
Cooling Degree Days 0 0  
Month to date cooling degree days 0 0  
Year to date cooling degree days 0 2  
Growing Degree Days 14 (Base 50)    
Moisture  
Dew Point 35 °F    
Average Humidity 38    
Maximum Humidity 59    
Minimum Humidity 16    
Precipitation  
Precipitation 0.00 in 0.01 in 0.31 in (1984)
Month to date precipitation 0.00 0.01  
Year to date precipitation 2.71 2.82  
Sea Level Pressure  
Sea Level Pressure 30.11 in    
Wind  
Wind Speed 6 mph (NNW)    
Max Wind Speed 13 mph    
Max Gust Speed 16 mph    
Visibility 10 miles    
Events      
T = Trace of Precipitation, MM = Missing Value Source: NWS Daily Summary

Daily Weather History Graph

Daily Weather History Graph

Search for Another Location

Airport or City:

Trip Planner

Search our weather history database for the weather conditions in past years. The results will help you decide how hot, cold, wet, or windy it might be!

Date:

Astronomy

May. 01, 2014 Rise Set
Actual Time 5:41 AM PDT 8:09 PM PDT
Civil Twilight 5:07 AM PDT 8:43 PM PDT
Nautical Twilight 4:24 AM PDT 9:27 PM PDT
Astronomical Twilight 3:35 AM PDT 10:16 PM PDT
Moon 7:29 AM PDT (5/1) 10:51 PM PDT (5/1)
Length of Visible Light 15h 36m
Length of Day
14h 28m
Waxing Crescent, 7% of the Moon is Illuminated
May 1
Waxing Crescent
May 6
First Quarter
May 14
Full
May 21
Last Quarter
May 28
New

Hourly Weather History & Observations

Time (PDT) Temp. Dew Point Humidity Pressure Visibility Wind Dir Wind Speed Gust Speed Precip Events Conditions
12:53 AM 55.0 °F 30.9 °F 40% 30.25 in 10.0 mi NNW 4.6 mph - N/A   Clear
1:53 AM 54.0 °F 32.0 °F 43% 30.24 in 10.0 mi North 6.9 mph - N/A   Clear
2:53 AM 48.9 °F 33.1 °F 54% 30.23 in 10.0 mi NW 4.6 mph - N/A   Clear
3:53 AM 51.1 °F 30.9 °F 46% 30.23 in 10.0 mi North 5.8 mph - N/A   Clear
4:53 AM 48.9 °F 34.0 °F 56% 30.22 in 10.0 mi North 5.8 mph - N/A   Clear
5:53 AM 54.0 °F 30.9 °F 41% 30.21 in 10.0 mi North 5.8 mph - N/A   Clear
6:53 AM 52.0 °F 37.0 °F 57% 30.22 in 10.0 mi NE 6.9 mph - N/A   Clear
7:53 AM 59.0 °F 37.9 °F 46% 30.21 in 10.0 mi NNE 6.9 mph - N/A   Clear
8:53 AM 63.0 °F 37.0 °F 38% 30.20 in 10.0 mi North 9.2 mph - N/A   Clear
9:53 AM 66.9 °F 37.0 °F 33% 30.18 in 10.0 mi North 10.4 mph - N/A   Clear
10:53 AM 72.0 °F 36.0 °F 27% 30.16 in 10.0 mi ENE 9.2 mph - N/A   Clear
11:53 AM 75.0 °F 30.0 °F 19% 30.14 in 10.0 mi Calm Calm - N/A   Clear
12:53 PM 79.0 °F 30.9 °F 17% 30.11 in 10.0 mi Calm Calm - N/A   Clear
1:53 PM 79.0 °F 30.0 °F 17% 30.09 in 10.0 mi South 6.9 mph - N/A   Clear
2:53 PM 80.1 °F 30.9 °F 17% 30.07 in 10.0 mi SSW 10.4 mph - N/A   Clear
3:53 PM 80.1 °F 32.0 °F 17% 30.04 in 10.0 mi South 5.8 mph 16.1 mph N/A   Clear
4:53 PM 81.0 °F 34.0 °F 18% 30.01 in 10.0 mi Variable 5.8 mph - N/A   Clear
5:53 PM 79.0 °F 35.1 °F 20% 29.99 in 10.0 mi SSW 6.9 mph - N/A   Clear
6:53 PM 78.1 °F 35.1 °F 21% 29.98 in 10.0 mi SSW 9.2 mph - N/A   Clear
7:53 PM 71.1 °F 41.0 °F 34% 29.96 in 10.0 mi South 5.8 mph - N/A   Clear
8:53 PM 68.0 °F 41.0 °F 37% 29.96 in 10.0 mi SW 3.5 mph - N/A   Clear
9:53 PM 64.0 °F 41.0 °F 43% 29.95 in 10.0 mi Calm Calm - N/A   Clear
10:53 PM 59.0 °F 41.0 °F 51% 29.96 in 10.0 mi Calm Calm - N/A   Clear
11:53 PM 60.1 °F 39.0 °F 46% 29.96 in 10.0 mi North 3.5 mph - N/A   Clear